Location: Santiago
(33.4378°S, 70.6505°W)
Time: 10:48:56
(UTC+00:00)

ISS - Pass Details

Date: 06 October 2024
Orbit: 412 x 424 km, 51.6° (Epoch: 09 October)

Event Time Altitude Azimuth Distance (km) Brightness Sun altitude
Exits shadow 08:38:17 - 205° (SSW) 1,942 -0.4 -19.9°
Reaches altitude 10° 08:39:35 10° 193° (SSW) 1,529 -0.8 -19.6°
Maximum altitude 08:42:02 18° 148° (SSE) 1,122 -1.0 -19.1°
Drops below altitude 10° 08:44:28 10° 102° (ESE) 1,514 0.3 -18.6°
Sets 08:47:02 0° 82° (E) 2,369 1.2 -18.1°
